Weather observations for the past three days for
Port Hope
| Date | Time (edt) | Wind (mph) | Vis. (mi.) | Weather | Sky Cond. | Temperature (ºF) | Relative Humidity | Wind Chill (°F) | Heat Index (°F) | Pressure | Precipitation (in) | ||||||
|---|---|---|---|---|---|---|---|---|---|---|---|---|---|---|---|---|---|
| Air | Dwpt | 6 hour | altimeter (in) | sea level (mb) | 1 hr | 3 hr | 6 hr | ||||||||||
| Max. | Min. | ||||||||||||||||
| 04 | 18:55 | SW 10 G 23 | 0.00 | NULL | NULL | 73 | 34 | 24% | 29.43 | 996.1 | |||||||
| 04 | 17:55 | SW 10 G 28 | 0.00 | NULL | NULL | 73.9 | 32 | 21% | 29.44 | 996.6 | |||||||
| 04 | 16:55 | SW 18 G 30 | 0.00 | NULL | NULL | 73.9 | 32 | 21% | 29.45 | 996.8 | |||||||
| 04 | 15:55 | SW 21 G 37 | 0.00 | Breezy | NULL | 75 | 33.1 | 22% | 76 | 29.45 | 996.7 | ||||||
| 04 | 14:55 | SW 21 G 38 | 0.00 | Breezy | NULL | 73.9 | 35.1 | 24% | 29.46 | 997.2 | |||||||
| 04 | 13:55 | SW 15 G 31 | 0.00 | NULL | NULL | 72 | 37 | 72 | 53.1 | 28% | 29.48 | 997.9 | |||||
| 04 | 12:55 | SW 13 G 31 | 0.00 | NULL | NULL | 71.1 | 39.9 | 32% | 29.51 | 998.8 | |||||||
| 04 | 11:55 | SW 9 G 21 | 0.00 | NULL | NULL | 68 | 46 | 45% | 29.53 | 999.8 | |||||||
| 04 | 10:55 | SW 8 G 18 | 0.00 | NULL | NULL | 63 | 46 | 54% | 29.55 | 1000.5 | |||||||
| 04 | 09:55 | SW 9 G 18 | 0.00 | NULL | NULL | 60.1 | 45 | 58% | 29.56 | 1000.9 | |||||||
| 04 | 08:55 | SW 13 G 21 | 0.00 | NULL | NULL | 55 | 44.1 | 67% | 29.58 | 1001.5 | |||||||
| 04 | 07:55 | SW 8 G 21 | 0.00 | NULL | NULL | 53.1 | 42.1 | 53.1 | 48.9 | 66% | 29.58 | 1001.8 | |||||
| 04 | 06:55 | SW 9 | 0.00 | NULL | NULL | 50 | 41 | 71% | 47 | 29.58 | 1001.8 | ||||||
| 04 | 05:55 | SW 9 G 18 | 0.00 | NULL | NULL | 50 | 39.9 | 68% | 47 | 29.59 | 1002.0 | ||||||
| 04 | 04:55 | SW 13 G 22 | 0.00 | NULL | NULL | 51.1 | 39.9 | 66% | 29.59 | 1002.0 | |||||||
| 04 | 03:55 | S 9 G 16 | 0.00 | NULL | NULL | 51.1 | 39.9 | 66% | 29.6 | 1002.5 | |||||||
| 04 | 02:55 | SW 12 G 20 | 0.00 | NULL | NULL | 50 | 42.1 | 74% | 46 | 29.63 | 1003.5 | ||||||
| 04 | 01:55 | SW 14 G 26 | 0.00 | NULL | NULL | 52 | 39 | 57 | 52 | 61% | 29.64 | 1004.0 | |||||
| 04 | 00:55 | SW 13 G 24 | 0.00 | NULL | NULL | 53.1 | 37.9 | 57% | 29.65 | 1004.3 | |||||||
| 03 | 23:55 | SW 10 G 23 | 0.00 | NULL | NULL | 53.1 | 37.9 | 57% | 29.67 | 1004.7 | |||||||
| 03 | 22:55 | SW 13 G 25 | 0.00 | NULL | NULL | 54 | 37.9 | 55% | 29.68 | 1005.2 | |||||||
| 03 | 21:55 | SW 9 G 22 | 0.00 | NULL | NULL | 55 | 37.9 | 53% | 29.69 | 1005.4 | |||||||
| 03 | 20:55 | SW 13 G 25 | 0.00 | NULL | NULL | 55 | 37.9 | 53% | 29.68 | 1005.3 | |||||||
| 03 | 19:55 | SW 14 G 25 | 0.00 | NULL | NULL | 57 | 37.9 | 63 | 48.9 | 49% | 29.67 | 1005.0 | |||||
| 03 | 18:55 | SW 22 G 40 | 0.00 | Breezy | NULL | 60.1 | 37 | 42% | 29.68 | 1005.3 | |||||||
| 03 | 17:55 | SW 8 G 28 | 0.00 | NULL | NULL | 60.1 | 37 | 42% | 29.69 | 1005.5 | |||||||
| 03 | 16:55 | SW 12 G 23 | 0.00 | NULL | NULL | 62.1 | 39.9 | 44% | 29.69 | 1005.5 | |||||||
| 03 | 15:55 | Vrbl 6 | 0.00 | NULL | NULL | 55 | 41 | 59% | 29.72 | 1007.0 | |||||||
| 03 | 14:55 | SW 13 G 24 | 0.00 | NULL | NULL | 54 | 39.9 | 59% | 29.74 | 1007.5 | |||||||
| 03 | 13:55 | SW 13 G 23 | 0.00 | NULL | NULL | 48.9 | 41 | 55.9 | 43 | 74% | 44 | 29.76 | 1008.2 | ||||
| 03 | 12:55 | SW 7 G 20 | 0.00 | NULL | NULL | 48 | 42.1 | 80% | 45 | 29.79 | 1009.5 | ||||||
| 03 | 11:55 | W 13 G 28 | 0.00 | NULL | NULL | 55 | 35.1 | 47% | 29.79 | 1009.2 | |||||||
| 03 | 10:55 | SW 10 G 21 | 0.00 | NULL | NULL | 54 | 35.1 | 49% | 29.8 | 1009.4 | |||||||
| 03 | 09:55 | SW 14 G 24 | 0.00 | NULL | NULL | 48 | 30.9 | 52% | 43 | 29.81 | 1009.9 | ||||||
| 03 | 08:55 | SW 13 G 23 | 0.00 | NULL | NULL | 45 | 28 | 52% | 39 | 29.82 | 1010.2 | ||||||
| 03 | 07:55 | SW 9 G 17 | 0.00 | NULL | NULL | 43 | 25 | 43 | 34 | 49% | 38 | 29.83 | 1010.6 | ||||
| 03 | 06:55 | Vrbl 3 | 0.00 | NULL | NULL | 37.9 | 26.1 | 62% | 29.84 | 1011.1 | |||||||
| 03 | 05:55 | S 3 | 0.00 | NULL | NULL | 37 | 28.9 | 73% | 29.86 | 1011.7 | |||||||
| 03 | 04:55 | SW 7 | 0.00 | NULL | NULL | 37.9 | 28 | 68% | 33 | 29.88 | 1012.5 | ||||||
| 03 | 03:55 | SW 6 | 0.00 | NULL | NULL | 37 | 26.1 | 65% | 33 | 29.89 | 1012.8 | ||||||
| 03 | 02:55 | SW 6 | 0.00 | NULL | NULL | 34 | 27 | 76% | 29 | 29.89 | 1013.0 | ||||||
| 03 | 01:55 | W 6 | 0.00 | NULL | NULL | 37.9 | 25 | 44.1 | 34 | 60% | 34 | 29.91 | 1013.3 | ||||
| 03 | 00:55 | SW 6 | 0.00 | NULL | NULL | 36 | 26.1 | 67% | 32 | 29.91 | 1013.5 | ||||||
| 02 | 23:55 | SW 5 | 0.00 | NULL | NULL | 37.9 | 27 | 65% | 35 | 29.92 | 1013.7 | ||||||
| 02 | 22:55 | Calm | 0.00 | NULL | NULL | 36 | 30.9 | 82% | 29.93 | 1014.3 | |||||||
| 02 | 21:55 | SE 6 | 0.00 | NULL | NULL | 39.9 | 33.1 | 77% | 36 | 29.93 | 1014.3 | ||||||
| 02 | 20:55 | SE 8 | 0.00 | NULL | NULL | 41 | 32 | 70% | 36 | 29.93 | 1014.2 | ||||||
| 02 | 19:55 | SE 12 | 0.00 | NULL | NULL | 44.1 | 32 | 46.9 | 42.1 | 63% | 39 | 29.93 | 1014.2 | ||||
| 02 | 18:55 | SE 8 | 0.00 | NULL | NULL | 46.9 | 28.9 | 50% | 44 | 29.94 | 1014.6 | ||||||
| 02 | 17:55 | E 14 | 0.00 | NULL | NULL | 45 | 30.9 | 58% | 39 | 29.96 | 1015.0 | ||||||
| 02 | 16:55 | E 9 | 0.00 | NULL | NULL | 44.1 | 30 | 58% | 40 | 29.97 | 1015.6 | ||||||
| 02 | 15:55 | NE 6 | 0.00 | NULL | NULL | 43 | 28 | 56% | 40 | 29.99 | 1016.3 | ||||||
| 02 | 14:55 | N 6 | 0.00 | NULL | NULL | 44.1 | 27 | 51% | 41 | 30.01 | 1016.8 | ||||||
| 02 | 13:55 | N 5 | 0.00 | NULL | NULL | 44.1 | 26.1 | 45 | 37.9 | 49% | 42 | 30.02 | 1017.1 | ||||
| 02 | 12:55 | NW 5 | 0.00 | NULL | NULL | 43 | 26.1 | 51% | 41 | 30.02 | 1017.2 | ||||||
| 02 | 11:55 | NW 7 | 0.00 | NULL | NULL | 43 | 26.1 | 51% | 39 | 30.03 | 1017.4 | ||||||
| 02 | 10:55 | NW 7 | 0.00 | NULL | NULL | 41 | 24.1 | 51% | 37 | 30.03 | 1017.6 | ||||||
| 02 | 09:55 | W 9 | 0.00 | NULL | NULL | 39.9 | 23 | 51% | 34 | 30.03 | 1017.6 | ||||||
| 02 | 08:55 | W 8 | 0.00 | NULL | NULL | 39 | 25 | 57% | 34 | 30.03 | 1017.7 | ||||||
| 02 | 07:55 | W 9 | 0.00 | NULL | NULL | 37 | 28.9 | 39 | 37 | 73% | 31 | 30.03 | 1017.6 | ||||
| 02 | 06:55 | NW 10 | 0.00 | NULL | NULL | 37 | 28 | 70% | 30 | 30.02 | 1017.4 | ||||||
| 02 | 05:55 | NW 9 | 0.00 | NULL | NULL | 37.9 | 27 | 65% | 32 | 30.01 | 1017.0 | ||||||
| 02 | 04:55 | NW 10 | 0.00 | NULL | NULL | 37 | 28 | 70% | 30 | 30.01 | 1017.0 | ||||||
| 02 | 03:55 | NW 9 G 20 | 0.00 | NULL | NULL | 37.9 | 26.1 | 62% | 32 | 30 | 1016.6 | ||||||
| 02 | 02:55 | W 7 | 0.00 | NULL | NULL | 37.9 | 25 | 60% | 33 | 30.01 | 1016.8 | ||||||
| 02 | 01:55 | NW 12 | 0.00 | NULL | NULL | 39 | 27 | 39 | 37.9 | 62% | 32 | 30.01 | 1016.8 | ||||
| 02 | 00:55 | W 7 | 0.00 | NULL | NULL | 37.9 | 28 | 68% | 33 | 30.01 | 1016.9 | ||||||
| 01 | 23:55 | NW 10 | 0.00 | NULL | NULL | 39 | 27 | 62% | 33 | 30 | 1016.8 | ||||||
| 01 | 22:55 | N 5 | 0.00 | NULL | NULL | 39 | 27 | 62% | 36 | 30 | 1016.8 | ||||||
| 01 | 21:55 | NW 8 | 0.00 | NULL | NULL | 37.9 | 30 | 73% | 33 | 30 | 1016.7 | ||||||
| 01 | 20:55 | N 10 | 0.00 | NULL | NULL | 37.9 | 28.9 | 70% | 32 | 29.99 | 1016.3 | ||||||
| 01 | 19:55 | N 9 | 0.00 | NULL | NULL | 37.9 | 28.9 | 43 | 37.9 | 70% | 32 | 29.98 | 1016.1 | ||||
| Date | Time (edt) | Wind (mph) | Vis. (mi.) | Weather | Sky Cond. | Air | Dwpt | Max. | Min. | Relative Humidity | Wind Chill (°F) | Heat Index (°F) | altimeter (in) | sea level (mb) | 1 hr | 3 hr | 6 hr |
| 6 hour | |||||||||||||||||
| Temperature (ºF) | Pressure | Precipitation (in) | |||||||||||||||